This is the latest recevied weather packets stored in our database for station/object KE2HEH. If no packets are shown the sender has not sent any weather packets the latest 10 day(s).
| Time | Temp. | Humidity | Pressure | Rain* | Wind** | Luminosity | Snow |
|---|---|---|---|---|---|---|---|
| 1777460418 | 11.11° C | 81% | 1017.8 hPa | 0 mm | - | 86 W/m² | - |
| 1777460114 | 11.11° C | 81% | 1017.9 hPa | 0 mm | - | 84 W/m² | - |
| 1777459811 | 10.56° C | 81% | 1017.8 hPa | 0 mm | - | 73 W/m² | - |
| 1777459508 | 10.56° C | 81% | 1017.8 hPa | 0 mm | - | 64 W/m² | - |
| 1777459206 | 10.56° C | 81% | 1017.5 hPa | 0 mm | - | 60 W/m² | - |
| 1777458903 | 10.56° C | 82% | 1017.6 hPa | 0 mm | - | 48 W/m² | - |
| 1777458599 | 10.56° C | 81% | 1017.6 hPa | 0 mm | - | 35 W/m² | - |
| 1777458296 | 10.56° C | 81% | 1017.5 hPa | 0 mm | - | 34 W/m² | - |
| 1777457991 | 10.56° C | 81% | 1017.6 hPa | 0 mm | - | 23 W/m² | - |
| 1777457688 | 10.56° C | 81% | 1017.6 hPa | 0 mm | - | 14 W/m² | - |
| 1777457388 | 10° C | 81% | 1017.7 hPa | 0 mm | - | 7 W/m² | - |
| 1777457083 | 10° C | 81% | 1017.7 hPa | 0 mm | - | 3 W/m² | - |
| 1777456780 | 10.56° C | 81% | 1017.7 hPa | 0 mm | - | 1 W/m² | - |
| 1777456478 | 10.56° C | 81% | 1017.7 hPa | 0 mm | - | 0 W/m² | - |
| 1777456176 | 10° C | 81% | 1017.8 hPa | 0 mm | - | 0 W/m² | - |
| 1777455871 | 10.56° C | 81% | 1018.3 hPa | 0 mm | - | 0 W/m² | - |
| 1777455568 | 10° C | 81% | 1017.8 hPa | 0 mm | - | 0 W/m² | - |
| 1777455265 | 10° C | 81% | 1018 hPa | 0 mm | - | 0 W/m² | - |
| 1777454961 | 10° C | 81% | 1018.1 hPa | 0 mm | - | 0 W/m² | - |
| 1777454659 | 10° C | 81% | 1018.1 hPa | 0 mm | - | 0 W/m² | - |
| 1777454354 | 10.56° C | 81% | 1017.9 hPa | 0 mm | - | 0 W/m² | - |
| 1777454051 | 10.56° C | 81% | 1018 hPa | 0 mm | - | 0 W/m² | - |
| 1777453748 | 10° C | 81% | 1017.8 hPa | 0 mm | - | 0 W/m² | - |
| 1777453445 | 10° C | 81% | 1017.9 hPa | 0 mm | - | 0 W/m² | - |
| 1777453142 | 10° C | 81% | 1018 hPa | 0 mm | - | 0 W/m² | - |
* Rain latest hour (hover to see other rain measurements)
** Current wind speed in m/s (hover to see current wind gust speed)